GEFSNGP_con_prob3kmehi_192.txt.gz
EHI
0 0 0 0 0 0 0 0 1 2 5 11 18 23 28 30 32 40 48 53 63 70 70 68 66 66 66 65 62 59 57 55 52 44 37 36 38 39 35 27 22 21 20 18
0 0 0 0 0 0 0 0 0 2 7 13 19 24 28 29 33 41 50 56 64 71 72 70 68 66 67 67 64 58 54 52 47 41 37 37 38 37 31 24 20 18 18 17
0 0 0 0 0 0 0 0 1 5 11 15 19 24 28 31 36 45 55 62 68 73 74 72 69 68 68 66 61 54 49 43 40 38 37 37 37 33 27 23 20 18 17 17
0 0 0 0 0 0 0 1 4 9 12 13 17 22 27 32 40 50 60 68 72 73 72 70 68 67 65 59 51 45 39 34 32 33 34 34 33 28 25 24 22 19 17 16
0 0 0 0 0 0 0 3 8 11 12 11 13 19 27 36 46 58 67 71 73 72 70 69 67 63 58 49 40 34 31 29 27 28 29 29 27 24 22 21 20 18 17 16
0 0 0 1 1 0 1 6 12 14 14 14 15 22 34 47 58 67 74 75 75 74 73 72 67 59 50 42 34 29 28 26 24 24 25 25 24 20 18 18 18 17 16 15
0 0 2 3 4 6 13 21 24 22 21 23 28 36 47 57 64 69 74 77 76 75 74 72 66 55 47 40 35 30 25 23 23 22 22 22 21 18 16 16 15 14 13 12
2 5 11 17 19 25 36 43 40 33 31 35 42 48 53 58 61 65 69 73 74 72 70 67 61 52 45 40 34 28 23 22 22 22 20 18 17 16 15 13 12 11 9 7
8 14 26 36 39 42 47 48 43 37 37 41 47 51 54 57 60 63 66 69 69 66 61 57 52 46 40 35 30 24 21 20 19 18 17 15 14 13 12 11 10 9 7 5
16 22 33 41 44 42 41 39 36 36 39 43 46 51 58 62 64 64 63 61 59 54 48 43 39 35 31 26 23 20 16 14 13 13 13 12 11 9 8 8 8 6 4 3
21 23 29 33 34 34 34 34 35 37 39 42 45 51 58 63 63 61 56 52 48 43 37 33 28 24 21 18 16 14 11 9 8 9 10 9 7 5 5 5 5 3 2 1
25 25 25 28 29 30 32 35 39 41 41 40 42 48 53 54 53 51 48 46 43 37 31 25 21 17 14 12 11 9 7 7 7 7 8 6 4 3 3 2 1 1 1 0
32 30 27 26 27 30 33 37 39 41 40 37 36 37 40 41 40 38 39 40 37 32 26 21 15 10 7 7 7 6 6 6 6 7 7 5 4 3 1 1 0 0 0 0
32 30 27 24 24 27 32 33 33 33 32 29 27 25 27 29 28 28 31 32 30 27 23 18 12 6 3 4 4 5 4 5 6 7 7 6 4 2 1 0 0 0 0 0
25 24 22 19 17 20 24 25 24 22 22 21 20 19 20 22 21 23 27 28 26 25 22 17 12 6 4 4 5 5 4 4 6 8 8 6 3 1 0 0 0 0 0 0
16 17 16 13 11 11 13 15 16 15 15 16 16 17 19 20 20 22 25 24 23 21 19 16 11 7 5 5 5 4 3 3 5 6 6 5 2 0 0 0 0 0 0 0
9 12 11 8 7 6 6 6 8 9 10 11 13 14 16 19 20 21 20 19 17 15 14 12 9 5 3 3 3 1 1 1 2 3 3 2 1 0 0 0 0 0 0 0
7 8 8 7 6 5 4 3 4 6 7 9 10 12 13 15 16 17 16 15 13 12 10 8 5 2 1 1 1 0 0 0 0 1 1 1 0 0 0 0 0 0 0 0
7 7 6 5 4 3 3 3 3 5 6 6 9 10 9 9 10 12 13 12 11 9 7 5 2 0 0 0 0 0 0 0 0 0 0 0 0 0 0 0 0 0 0 0
5 4 3 3 2 1 1 2 3 4 4 4 6 7 6 6 8 9 10 10 9 7 5 3 1 0 0 0 0 0 0 0 0 0 0 0 0 0 0 0 0 0 0 0
1 1 1 2 1 0 0 1 3 4 3 2 2 3 5 6 7 7 7 7 7 5 3 1 0 0 0 0 0 0 0 0 0 0 0 0 0 0 0 0 0 0 0 0
0 0 1 2 2 1 1 1 3 3 2 1 1 2 4 6 7 6 5 5 4 3 1 0 0 0 0 0 0 0 0 0 0 0 0 0 0 0 0 0 0 0 0 0
1 1 2 3 3 2 2 2 2 2 1 0 1 2 4 5 5 4 4 3 2 1 0 0 0 0 0 0 0 0 0 0 0 0 0 0 0 0 0 0 0 0 0 0
2 2 2 2 2 1 2 2 1 1 0 0 1 2 4 5 5 4 3 2 1 0 0 0 0 0 0 0 0 0 0 0 0 0 0 0 0 0 0 0 0 0 0 0
3 2 1 1 1 1 1 1 1 0 0 0 0 1 3 4 4 4 3 2 1 0 0 0 0 0 0 0 0 0 0 0 0 0 0 0 0 0 0 0 0 0 0 0
2 1 1 0 1 1 1 1 1 0 0 0 0 0 1 2 3 3 3 2 1 0 0 0 0 0 0 0 0 0 0 0 0 0 0 0 0 0 0 0 0 0 0 0
1 1 2 1 1 2 1 1 1 0 0 0 0 0 0 1 2 3 3 1 0 0 0 0 0 0 0 0 0 0 0 0 0 0 0 0 0 0 0 0 0 0 0 0

GEFSNGP_con_prob3kmehi_198.txt.gz
EHI
0 0 0 0 0 0 0 0 0 2 4 6 12 21 30 40 48 53 54 51 49 49 51 52 52 52 51 50 46 44 43 40 36 33 31 27 18 12 11 9 6 4 2 2
0 0 0 0 0 0 0 0 1 3 6 9 16 25 34 43 49 52 52 49 48 51 52 52 52 50 48 44 41 41 41 38 33 30 28 24 18 13 11 8 5 4 5 5
0 0 0 0 0 0 1 2 2 4 9 18 25 32 39 46 51 52 51 49 48 50 50 48 47 46 43 38 35 36 36 31 27 25 23 19 15 13 11 8 6 6 6 6
0 0 0 0 0 1 3 6 7 8 16 26 33 39 43 48 52 53 50 46 45 45 45 43 39 38 37 33 31 31 29 25 21 20 18 15 13 12 11 9 7 7 6 6
0 0 0 1 2 3 7 13 16 17 21 28 37 44 45 46 49 51 47 42 42 43 43 39 34 33 32 29 26 24 22 19 17 17 16 14 12 11 10 9 8 7 6 6
0 0 0 1 4 6 10 17 19 22 24 27 35 42 43 43 45 46 45 44 45 45 42 36 32 30 28 25 21 18 17 15 15 16 15 14 12 10 9 8 8 7 6 5
0 0 0 3 7 8 9 13 17 21 25 29 34 41 44 46 46 46 47 47 47 45 40 34 30 26 23 20 17 15 15 15 15 15 14 13 12 11 9 7 7 7 6 6
0 0 1 4 9 10 10 12 16 21 28 35 42 46 50 53 53 51 50 48 44 41 35 29 24 20 18 16 14 14 13 13 13 12 12 12 12 10 8 6 6 6 6 6
3 3 5 9 13 14 16 20 23 27 32 42 49 51 53 55 56 53 51 46 40 34 28 21 16 14 13 12 11 11 10 10 9 9 9 10 9 8 6 4 4 4 5 5
7 9 13 17 19 20 22 27 30 33 39 46 49 49 49 52 51 49 45 39 32 25 20 15 11 10 9 7 6 7 7 7 7 7 7 7 6 5 4 3 3 3 4 4
8 11 18 23 22 21 23 26 30 36 42 46 46 45 46 47 46 42 37 30 24 17 12 9 7 6 5 4 3 4 5 6 6 6 5 4 4 4 3 3 3 3 3 3
6 10 17 22 23 22 22 24 28 34 40 43 42 42 42 41 39 35 28 23 18 13 8 6 6 5 4 3 3 3 4 4 5 5 4 3 3 3 3 3 2 2 2 1
7 10 16 22 24 24 24 25 28 32 36 37 37 36 34 34 32 27 20 16 14 11 7 4 4 4 3 3 3 3 3 3 3 2 2 3 3 3 3 2 1 1 1 0
9 12 17 21 23 22 22 24 25 28 29 29 29 28 27 26 23 17 13 11 10 7 5 3 3 3 3 3 3 3 3 3 2 1 1 2 3 3 3 2 0 0 0 0
11 13 16 19 18 15 16 18 19 19 19 19 20 20 20 19 14 9 8 8 6 4 3 3 3 3 3 3 3 3 3 3 2 0 0 1 2 3 3 1 0 0 0 0
10 12 14 14 12 10 9 10 11 11 11 12 12 13 13 11 8 5 6 6 5 3 3 3 3 3 3 3 3 3 3 3 2 0 0 0 1 2 2 1 0 0 0 0
6 7 8 8 7 6 5 5 6 6 6 6 6 7 7 6 5 5 6 6 4 3 4 3 3 3 3 3 3 3 3 3 1 0 0 0 0 1 1 0 0 0 0 0
2 2 3 3 3 3 2 3 3 4 4 3 2 2 3 3 4 4 6 6 5 4 4 3 3 3 3 3 3 3 3 2 1 0 0 0 0 0 0 0 0 0 0 0
1 0 0 1 1 1 0 1 1 1 1 1 0 0 1 2 4 5 6 6 6 6 4 2 2 2 2 1 1 2 2 1 0 0 0 0 0 0 0 0 0 0 0 0
0 0 0 0 0 0 0 0 0 0 0 0 0 0 0 1 4 6 7 6 6 5 3 1 1 1 1 0 0 1 1 1 0 0 0 0 0 0 0 0 0 0 0 0
1 1 1 0 0 0 0 0 0 0 0 0 0 0 0 0 3 6 6 5 4 3 2 1 0 0 0 0 0 0 0 0 0 0 0 0 0 0 0 0 0 0 0 0
1 2 1 0 0 0 0 0 0 0 0 0 0 0 0 0 2 5 5 4 3 2 1 1 0 0 0 0 0 0 0 0 0 0 0 0 0 0 0 0 0 0 0 0
0 1 1 0 0 0 0 0 0 0 0 0 0 0 0 0 1 3 4 3 2 1 0 0 0 0 0 0 0 0 0 0 0 0 0 0 0 0 0 0 0 0 0 0
0 0 0 0 0 0 0 0 0 0 0 0 0 0 0 0 0 1 2 3 2 1 0 0 0 0 0 0 0 0 0 0 0 0 0 0 0 0 0 0 0 0 0 0
0 0 0 0 0 0 0 0 0 0 0 0 0 0 0 0 0 0 1 2 2 1 0 0 0 0 0 0 0 0 0 0 0 0 0 0 0 0 0 0 0 0 0 0
0 0 0 0 0 0 0 0 0 0 0 0 0 0 0 0 0 0 0 1 2 1 0 0 0 0 0 0 0 0 0 0 0 0 0 0 0 0 0 0 0 0 0 0
0 0 0 0 0 0 0 0 0 0 0 0 0 0 0 0 0 0 0 1 2 1 0 0 0 0 0 0 0 0 0 0 0 0 0 0 0 0 0 0 0 0 0 0

GEFSNGP_con_prob3kmehi_204.txt.gz
EHI
0 0 0 0 0 0 0 0 0 0 0 0 4 11 16 17 19 20 21 23 23 22 24 30 32 31 28 26 25 27 27 25 23 20 17 15 13 12 11 10 9 8 6 3
0 0 0 0 0 0 0 0 0 0 0 1 6 14 19 20 21 20 19 22 23 23 25 28 30 29 27 25 24 26 26 24 21 18 17 15 14 13 11 9 8 7 5 4
0 0 0 0 0 0 0 0 0 0 1 3 9 16 21 22 22 20 18 21 23 24 24 25 26 26 24 23 23 23 23 21 19 17 16 16 14 13 11 9 7 6 4 4
0 0 0 0 0 0 0 0 0 1 4 7 11 17 20 21 21 18 16 19 22 22 22 23 24 21 20 21 21 20 19 18 16 16 16 16 14 12 11 9 7 5 4 3
0 0 0 0 0 0 0 0 1 2 6 11 15 18 18 18 17 16 18 21 22 21 22 23 22 20 19 19 20 19 17 16 14 15 16 15 13 11 10 9 6 4 3 2
0 0 0 0 0 0 0 0 1 3 8 14 17 17 16 16 18 20 23 26 26 26 25 23 22 21 19 19 18 17 15 14 14 15 15 14 11 10 9 8 5 2 1 1
0 0 0 0 0 0 0 0 1 5 10 15 16 15 17 20 24 26 28 31 30 29 26 23 22 21 19 16 14 12 12 12 13 14 13 11 10 10 9 7 4 1 0 0
0 0 0 1 1 1 1 1 2 5 10 15 17 18 20 25 29 30 31 32 30 28 26 24 22 20 17 13 10 9 9 10 10 10 10 9 9 8 7 5 3 1 0 0
1 2 3 3 4 4 3 3 4 5 8 15 21 22 24 27 31 30 29 28 26 26 26 23 20 17 14 10 8 8 9 9 8 8 8 7 7 6 5 4 2 1 1 1
4 6 7 8 9 8 6 5 6 7 10 16 22 24 26 29 31 28 24 22 21 22 23 19 14 12 10 8 7 7 8 8 8 8 8 6 5 4 4 3 3 3 2 2
4 7 8 8 9 9 6 6 7 10 14 18 22 25 28 31 30 26 21 18 17 18 15 11 7 6 6 6 5 5 5 6 6 7 7 6 5 4 3 3 3 3 3 3
2 3 5 5 6 5 5 4 8 13 16 18 21 24 27 30 29 24 18 15 13 13 10 6 3 3 3 4 4 4 4 4 4 4 5 5 4 3 3 3 2 2 2 2
0 1 2 4 5 5 5 6 9 14 16 16 18 22 26 26 24 20 15 11 9 9 8 5 3 2 3 3 3 3 3 3 3 3 4 3 3 3 3 3 2 1 1 1
0 0 2 5 7 7 8 9 12 15 17 16 17 20 21 20 18 16 12 8 5 6 6 5 4 3 3 3 3 3 3 3 3 3 2 1 1 1 2 2 2 1 0 0
0 1 3 6 7 7 8 10 13 15 16 16 16 16 15 14 13 12 9 5 3 3 4 4 3 3 3 3 3 3 3 3 3 2 1 0 0 0 1 1 1 1 0 0
1 2 5 7 6 5 6 9 11 12 13 13 12 11 11 10 9 7 5 4 3 3 3 3 3 3 3 3 3 3 3 3 2 1 0 0 0 0 0 0 0 0 0 0
3 4 6 6 5 4 4 5 6 7 8 9 8 8 8 6 4 3 3 3 3 3 3 3 3 3 3 3 3 3 3 2 1 0 0 0 0 0 0 0 0 0 0 0
3 4 5 5 4 3 2 2 2 3 4 5 5 6 5 3 1 1 1 3 3 3 3 3 3 3 3 3 3 3 3 1 0 0 0 0 0 0 0 0 0 0 0 0
3 3 3 3 2 1 1 0 0 1 1 2 3 3 3 1 0 0 1 3 3 3 3 3 3 3 3 3 3 3 2 1 0 0 0 0 0 0 0 0 0 0 0 0
2 2 2 1 1 0 0 0 0 0 0 1 1 1 1 0 0 0 2 3 3 3 3 3 3 3 3 3 3 3 1 0 0 0 0 0 0 0 0 0 0 0 0 0
1 1 1 0 0 0 0 0 0 0 0 0 0 0 0 0 0 0 1 2 2 2 3 3 3 3 3 3 3 2 1 0 0 0 0 0 0 0 0 0 0 0 0 0
0 0 0 0 0 0 0 0 0 0 0 0 0 0 0 0 0 0 1 1 1 1 2 2 2 2 3 3 2 1 0 0 0 0 0 0 0 0 0 0 0 0 0 0
0 0 0 0 0 0 0 0 0 0 0 0 0 0 0 0 0 0 0 0 0 0 1 1 1 1 1 2 1 0 0 0 0 0 0 0 0 0 0 0 0 0 0 0
0 0 0 0 0 0 0 0 0 0 0 0 0 0 0 0 0 0 0 0 0 0 0 0 0 0 0 0 0 0 0 0 0 0 0 0 0 0 0 0 0 0 0 0
0 0 0 0 0 0 0 0 0 0 0 0 0 0 0 0 0 0 0 0 0 0 0 0 0 0 0 0 0 0 0 0 0 0 0 0 0 0 0 0 0 0 0 0
0 0 0 0 0 0 0 0 0 0 0 0 0 0 0 0 0 0 0 0 0 0 0 0 0 0 0 0 0 0 0 0 0 0 0 0 0 0 0 0 0 0 0 0
0 0 0 0 0 0 0 0 0 0 0 0 0 0 0 0 0 0 0 0 0 0 0 0 0 0 0 0 0 0 0 0 0 0 0 0 0 0 0 0 0 0 0 0

GEFSNGP_con_prob3kmehi_210.txt.gz
EHI
0 0 0 0 0 0 0 0 0 0 2 7 12 18 21 22 23 25 31 38 41 43 48 50 49 50 51 48 44 39 35 33 32 31 28 27 27 26 23 23 22 21 20 19
0 0 0 0 0 0 0 0 0 0 3 8 13 18 22 22 22 25 29 35 39 42 45 48 48 50 50 48 45 39 34 31 30 30 29 28 28 26 24 22 21 20 19 19
0 0 0 0 0 0 0 0 0 1 4 9 14 19 22 23 25 28 30 34 39 43 46 47 48 50 49 46 43 38 33 29 28 28 28 28 27 25 23 21 20 18 18 19
0 0 0 0 0 0 0 0 0 1 5 10 15 18 20 21 26 31 34 37 42 46 48 48 48 50 47 42 38 35 31 28 27 27 26 25 24 22 21 20 19 17 17 16
0 0 0 0 0 0 0 0 0 3 7 13 16 18 19 21 25 32 38 42 46 50 51 49 49 49 44 37 33 31 29 27 26 25 24 22 21 20 18 18 17 16 15 14
0 0 0 0 0 0 0 0 2 7 13 16 16 17 21 25 29 34 41 47 51 52 53 51 50 48 42 36 32 29 27 25 23 23 22 20 19 18 16 15 15 15 14 13
0 0 0 1 1 1 2 4 7 12 18 20 18 20 26 32 35 39 44 49 52 54 54 51 49 48 43 37 31 26 24 23 21 20 19 18 17 17 16 15 14 14 13 12
0 0 1 3 4 6 10 12 14 16 19 21 22 25 30 32 36 41 46 50 52 53 52 49 47 46 44 36 28 23 21 20 18 16 16 16 16 16 15 14 13 13 12 11
1 1 2 4 8 14 17 18 19 20 21 22 25 28 30 32 35 42 49 53 52 50 47 45 44 43 41 35 27 21 18 16 15 13 13 14 15 15 13 12 12 12 11 10
2 2 4 6 11 16 19 20 20 21 21 21 24 26 29 33 37 45 51 52 52 49 45 43 40 38 36 31 25 18 13 12 11 10 10 11 12 11 11 10 10 10 9 9
3 6 9 11 14 17 18 20 21 21 21 20 20 23 29 35 40 45 47 48 49 48 45 42 38 34 29 25 20 14 10 8 8 7 8 8 8 8 8 8 7 7 6 6
6 10 15 17 18 18 19 21 23 24 23 21 21 24 30 36 40 41 40 41 44 44 42 38 33 29 24 20 16 12 9 7 7 6 5 5 5 5 5 5 4 2 2 3
9 13 18 20 19 20 21 21 22 24 24 23 23 25 30 35 37 36 34 34 35 35 33 31 28 26 22 17 15 12 9 7 6 5 4 4 4 4 4 4 2 1 0 1
9 13 18 19 18 20 21 20 19 19 20 22 23 25 28 31 32 30 29 28 27 27 27 27 25 22 17 13 11 10 8 5 4 4 3 4 4 4 4 3 3 2 1 1
8 11 16 17 16 16 17 17 16 17 18 20 21 23 25 26 26 25 25 24 22 23 23 23 21 17 10 7 7 8 6 4 3 3 3 3 4 3 3 3 3 3 3 2
8 10 13 14 12 11 12 14 14 15 15 16 17 19 21 22 22 22 22 21 20 19 18 17 16 12 7 4 5 7 6 4 3 3 3 3 3 3 3 2 2 2 3 3
9 9 9 8 7 6 8 11 13 13 12 13 14 15 16 17 18 19 20 20 19 17 14 12 12 12 8 5 6 6 6 4 3 3 3 3 3 3 3 1 0 1 1 2
8 8 7 6 5 6 7 9 12 13 12 13 12 11 12 13 15 17 18 18 17 15 13 11 10 10 8 6 6 6 6 5 4 3 3 2 2 3 2 1 0 0 0 1
5 6 7 7 8 8 8 9 12 14 14 13 11 9 9 11 13 14 15 14 12 11 11 10 8 7 7 6 6 6 5 4 3 2 1 1 1 1 2 1 0 0 0 0
3 4 6 8 9 10 10 11 12 13 12 11 9 7 8 10 11 10 10 8 8 8 8 7 7 7 6 5 4 4 4 3 3 1 0 0 0 0 1 1 0 0 0 0
4 5 7 8 10 10 10 9 9 8 9 8 6 5 6 7 7 6 5 5 5 7 7 6 7 8 6 4 3 3 3 3 2 1 0 0 0 0 0 0 0 0 0 0
6 7 8 8 8 8 7 6 5 5 5 4 3 3 3 3 2 3 3 3 3 4 6 7 7 6 5 4 3 3 3 3 2 1 0 0 0 0 0 0 0 0 0 0
7 8 8 7 5 5 4 3 2 2 2 2 2 1 1 1 0 1 1 1 1 2 5 6 6 4 3 3 3 3 3 2 1 0 0 0 0 0 0 0 0 0 0 0
6 6 5 4 3 2 2 1 1 2 2 1 1 0 0 0 0 0 0 0 0 1 3 4 3 2 2 3 3 3 3 2 0 0 0 0 0 0 0 0 0 0 0 0
5 4 2 1 1 1 1 1 2 2 2 2 1 0 0 0 0 0 0 0 0 0 1 1 1 1 1 2 3 3 3 2 0 0 0 0 0 0 0 0 0 0 0 0
2 2 2 1 0 0 0 1 2 3 2 1 1 0 0 0 0 0 0 0 0 0 0 0 0 0 1 3 3 3 3 1 0 0 0 0 0 0 0 0 0 0 0 0
0 1 2 1 0 0 0 1 2 3 1 1 1 0 0 0 0 0 0 0 0 0 0 0 0 1 2 3 3 3 2 1 0 0 0 0 0 0 0 0 0 0 0 0

GEFSNGP_con_prob3kmehi_216.txt.gz
EHI
0 0 0 0 0 0 0 0 0 0 2 9 20 28 31 38 45 47 48 55 64 67 66 64 62 60 59 57 57 57 54 51 50 48 43 38 34 30 29 29 29 27 25 25
0 0 0 0 0 0 0 0 0 1 5 13 23 29 33 40 47 48 48 52 62 67 67 65 62 59 58 57 57 57 53 48 46 43 40 35 32 31 31 30 28 25 23 23
0 0 0 0 0 0 0 0 0 2 9 18 25 30 34 41 48 50 47 49 58 66 67 66 63 61 58 56 57 56 50 44 40 39 37 34 32 32 31 29 24 22 20 19
0 0 0 0 0 0 0 0 1 4 12 20 26 30 33 39 47 51 50 52 57 62 66 66 65 63 60 56 55 52 46 40 37 37 36 34 32 31 29 25 21 19 17 16
0 0 0 0 0 0 0 1 3 7 14 20 24 28 32 40 50 55 56 57 58 59 63 68 68 65 61 56 52 48 43 38 36 35 35 32 30 28 24 21 19 17 15 14
0 0 0 1 2 1 1 4 7 12 16 20 22 26 36 47 56 62 63 62 60 60 64 70 70 67 63 56 50 45 41 38 36 35 32 30 26 22 18 17 17 16 14 13
0 0 1 2 3 6 10 15 17 18 20 21 23 30 43 54 60 66 66 64 63 64 68 71 71 68 63 55 49 45 42 39 37 33 28 24 20 16 14 14 16 15 13 12
1 3 7 11 15 22 29 31 27 25 24 24 27 35 47 56 61 65 65 65 66 68 69 69 69 67 62 55 50 46 43 39 36 31 25 18 15 13 13 14 14 13 11 11
3 8 14 22 31 40 42 38 33 30 28 26 29 35 46 56 62 64 63 62 63 65 66 67 68 67 62 54 48 45 42 38 34 30 25 19 15 13 13 13 12 11 10 10
10 12 16 23 32 38 37 33 31 30 29 28 30 37 47 57 63 63 60 58 59 61 63 66 68 66 60 52 46 43 40 35 31 26 22 18 14 12 11 10 10 10 9 9
17 17 16 18 22 24 23 23 23 24 27 28 31 38 48 56 60 59 56 54 56 59 61 63 64 63 58 52 47 43 38 32 26 19 14 13 11 9 8 7 7 8 8 8
21 21 19 17 15 14 15 16 17 20 25 28 32 39 46 50 52 51 50 50 54 56 57 59 60 59 56 51 47 42 35 28 20 12 8 7 7 6 5 4 3 4 6 6
21 22 21 17 13 12 16 17 19 22 27 32 37 41 43 43 43 42 42 44 46 49 52 55 57 55 52 48 43 38 30 23 16 9 6 5 5 6 6 4 3 2 3 3
15 17 19 17 15 17 19 20 22 27 32 36 39 39 38 37 36 36 37 38 41 43 46 48 49 48 44 41 37 31 25 18 14 10 8 7 6 6 7 6 4 2 2 2
8 9 11 12 14 17 19 20 22 26 31 35 35 33 32 34 34 32 32 35 38 40 40 40 39 39 37 35 32 27 21 16 12 11 11 10 8 7 6 6 4 2 2 2
5 5 6 8 11 14 16 16 16 19 25 29 32 31 30 32 33 31 30 32 34 35 34 32 32 33 32 30 28 25 20 14 10 10 11 10 9 8 6 4 3 1 1 2
4 6 7 7 8 11 13 13 12 15 20 25 29 30 29 30 31 31 30 29 29 29 28 27 27 29 29 26 24 23 18 12 9 9 9 9 9 8 6 4 3 2 1 1
4 6 8 7 6 7 10 12 12 16 22 24 24 24 25 27 28 28 27 26 24 24 23 22 22 24 23 21 21 21 18 13 9 7 8 8 7 6 4 3 3 2 1 0
4 5 7 7 6 6 8 11 14 19 25 26 22 20 22 25 24 23 23 23 22 23 22 18 16 18 18 16 15 17 15 11 8 7 7 6 5 4 3 3 3 2 1 0
6 5 5 5 5 6 8 12 16 21 26 27 24 22 22 23 21 21 23 25 24 23 20 15 13 14 14 12 10 10 10 8 7 6 6 5 4 3 3 3 3 1 0 0
6 5 4 4 5 7 10 14 17 20 25 27 28 27 25 22 20 20 22 23 21 17 13 11 11 11 11 9 7 6 7 7 7 6 4 4 3 3 3 3 2 1 0 0
6 6 5 6 8 11 15 19 20 20 24 27 28 28 25 20 17 15 14 14 12 9 8 9 9 9 8 7 6 6 7 8 8 6 4 3 3 3 3 2 1 0 0 0
8 8 10 11 13 16 18 20 20 20 23 26 27 24 20 14 9 6 5 5 4 3 5 8 7 5 5 5 6 7 8 8 6 4 3 3 3 2 1 1 0 0 0 0
9 10 13 15 16 16 16 16 16 18 20 22 21 17 12 7 3 1 1 1 1 1 2 4 3 2 2 5 7 7 7 6 4 3 3 3 2 1 0 0 0 0 0 0
8 9 12 14 13 12 11 11 12 14 15 16 14 11 7 3 2 2 1 0 0 0 1 1 1 0 2 5 7 7 6 4 3 3 3 3 1 0 0 0 0 0 1 1
7 9 12 12 10 8 7 7 8 9 10 11 9 8 5 3 2 3 2 0 0 0 0 0 0 0 2 4 5 5 5 4 3 3 3 3 2 1 1 1 0 0 1 2
8 10 12 12 10 7 6 6 5 6 7 8 8 7 5 2 1 2 1 0 0 0 0 0 0 0 1 2 3 3 5 5 4 3 4 4 3 2 2 2 1 0 1 1

GEFSNGP_con_prob3kmehi_222.txt.gz
EHI
0 0 0 0 0 0 0 0 0 0 2 10 21 30 35 39 45 48 47 44 43 42 43 45 46 45 45 41 35 32 32 33 31 26 24 24 23 21 19 17 12 8 9 10
0 0 0 0 0 0 0 0 0 0 3 10 20 29 34 39 42 45 46 44 42 41 42 44 44 43 42 39 33 31 32 32 28 25 23 23 23 21 19 16 12 10 10 11
0 0 0 0 0 0 1 1 1 2 5 12 21 29 34 37 38 40 43 42 40 39 40 42 42 40 37 34 30 30 31 30 27 25 24 23 23 21 19 16 13 12 12 12
0 0 0 0 0 2 4 4 4 6 12 19 25 30 31 31 32 35 39 40 39 38 38 40 40 38 34 30 28 29 29 29 27 26 24 23 22 20 18 16 14 13 13 13
0 0 0 0 1 3 6 9 11 15 22 27 30 30 28 27 29 33 37 39 39 39 40 41 40 37 33 28 27 28 27 27 26 25 23 22 19 17 15 13 12 12 12 12
0 0 0 1 2 4 7 11 15 20 27 31 32 30 28 29 32 35 38 41 41 41 43 43 40 38 33 29 27 27 26 26 25 24 22 19 16 12 10 10 10 11 10 9
0 0 0 1 2 3 6 10 15 21 27 30 30 29 33 38 40 40 43 45 46 45 44 42 40 37 34 29 27 26 25 25 24 21 19 15 11 8 7 7 9 9 9 8
0 0 0 0 1 3 7 12 17 23 27 30 31 34 41 46 46 46 49 52 54 51 45 42 39 35 32 28 25 24 24 23 21 18 15 11 8 6 6 6 7 8 8 7
1 1 2 3 4 6 11 17 23 28 29 32 37 41 46 48 46 46 50 54 56 53 46 39 35 31 27 25 25 24 23 21 18 15 11 7 5 5 5 6 6 6 7 7
4 4 6 8 8 11 15 21 27 31 32 34 38 41 44 44 41 42 44 46 49 48 44 37 31 27 24 24 25 25 23 18 15 11 7 4 4 4 4 5 6 7 7 7
6 7 8 10 9 11 15 21 26 30 33 34 36 38 39 39 38 38 37 38 41 43 41 36 29 25 24 25 26 26 22 16 12 8 5 3 3 3 3 4 6 7 6 6
5 5 7 8 9 9 13 17 21 25 30 33 34 36 37 36 35 35 34 34 36 39 38 34 29 25 24 25 25 25 21 14 10 7 4 3 3 2 2 3 4 4 3 3
4 6 8 10 10 12 14 16 20 24 28 30 31 33 34 32 30 31 32 33 34 35 34 31 28 24 21 21 22 22 18 12 8 6 4 3 3 3 3 3 2 1 1 1
6 8 10 11 12 14 17 19 23 27 29 28 26 27 28 28 29 30 31 31 32 33 32 29 25 21 17 15 15 15 13 9 6 4 3 3 3 3 3 3 2 1 0 0
7 7 7 9 12 16 19 22 24 27 28 26 22 22 24 27 29 30 30 31 32 31 29 27 22 18 14 11 9 9 8 6 4 3 3 3 3 3 3 3 3 2 1 0
6 6 5 6 11 15 18 20 22 23 22 20 18 19 22 25 27 28 28 29 29 27 26 25 20 15 11 8 5 5 5 4 4 3 3 3 3 3 3 3 3 3 1 0
6 5 4 5 7 9 12 15 17 18 18 16 17 17 18 21 23 23 23 22 23 24 23 21 17 12 9 6 4 3 4 4 3 3 3 3 3 3 3 3 3 3 2 1
4 4 3 3 3 3 6 10 12 15 16 17 18 16 15 16 18 18 17 16 18 20 20 17 12 9 7 6 4 3 3 3 3 3 3 3 3 3 3 3 3 3 1 0
4 4 3 2 1 1 4 7 10 12 14 15 16 16 14 13 14 15 14 13 14 15 15 12 8 7 7 6 5 4 3 3 3 3 3 3 3 3 3 3 3 2 1 0
4 4 4 2 1 2 4 6 8 11 12 11 12 12 12 11 11 12 13 13 12 12 10 8 7 8 8 7 6 5 4 4 3 3 3 3 3 3 3 3 3 2 1 0
4 4 5 4 3 3 5 6 8 9 10 8 7 6 6 5 6 8 11 11 10 8 7 6 7 8 7 7 6 6 6 5 4 4 3 3 3 3 3 3 3 1 0 0
3 4 5 5 4 4 6 6 7 8 9 7 5 3 1 1 2 5 7 7 6 4 4 5 5 6 6 6 6 6 6 6 6 5 4 4 4 3 3 3 2 1 0 0
3 4 4 4 4 5 6 6 6 7 7 6 4 2 0 0 2 3 3 3 2 1 1 2 3 4 4 5 6 6 6 6 6 6 6 6 5 4 3 3 3 1 0 0
4 4 3 4 5 7 6 5 4 4 4 3 3 2 0 0 1 2 1 1 1 0 0 0 1 2 3 4 5 6 6 6 6 6 6 6 6 5 4 3 2 1 0 0
5 5 4 4 5 6 5 4 3 2 2 1 1 1 0 0 0 0 0 0 0 0 0 0 0 1 3 3 4 4 5 6 6 6 6 6 6 5 3 2 1 1 0 0
4 4 4 3 3 4 4 3 2 1 1 0 0 0 0 0 0 0 0 0 0 0 0 0 0 1 2 3 4 4 5 6 5 5 5 4 4 4 3 1 0 0 0 0
2 2 2 2 2 2 3 3 2 1 0 0 0 0 0 0 0 0 0 0 0 0 0 0 0 0 1 3 5 5 6 6 5 5 4 4 3 3 2 1 0 0 0 0

GEFSNGP_con_prob3kmehi_228.txt.gz
EHI
0 0 0 0 0 0 0 0 0 0 0 0 3 9 14 17 20 22 20 18 16 14 16 22 30 31 28 24 23 24 26 24 19 17 14 10 8 8 8 8 7 4 3 3
0 0 0 0 0 0 0 0 0 0 0 0 3 9 15 18 22 23 21 19 19 17 18 22 27 27 26 25 25 27 28 25 22 20 18 13 10 9 10 11 9 7 5 4
0 0 0 0 0 0 0 0 0 0 0 1 4 9 14 17 21 22 21 22 22 20 19 22 24 25 26 26 27 28 28 26 24 23 21 16 11 10 11 12 11 11 10 9
0 0 0 0 0 0 0 0 0 0 1 3 6 9 12 14 17 19 19 21 21 20 19 19 21 25 28 28 26 25 25 24 24 24 21 17 13 10 10 11 12 13 13 14
0 0 0 0 0 0 0 0 0 1 4 7 8 9 9 10 14 16 17 19 19 21 20 18 18 23 28 28 25 22 20 20 22 22 20 18 15 12 9 9 10 11 12 12
0 0 0 0 0 0 0 0 0 2 6 10 10 8 7 10 14 17 19 21 22 23 22 17 14 18 24 26 24 20 17 18 20 21 19 17 15 11 8 7 7 7 7 7
0 0 0 0 0 0 0 0 1 3 7 11 10 7 8 14 20 23 26 28 30 30 24 16 12 14 18 22 21 19 17 17 18 19 18 16 13 10 8 6 5 5 5 5
0 0 0 0 0 0 0 0 1 4 8 10 9 9 13 20 26 30 33 37 39 36 27 18 14 14 16 19 19 18 18 17 16 16 16 16 14 10 6 4 4 5 4 4
1 1 0 0 0 1 1 1 1 4 7 9 10 13 18 25 30 33 36 40 42 37 29 21 18 16 16 17 18 18 17 16 15 14 14 14 13 8 3 2 3 4 3 2
2 1 1 1 2 4 5 5 4 5 7 10 13 15 19 25 29 32 34 37 38 33 26 21 18 17 15 15 16 16 15 14 13 13 13 12 10 6 2 1 2 3 2 1
2 1 1 2 4 5 9 10 9 9 10 13 16 15 16 22 26 29 30 32 32 26 20 16 15 15 13 13 13 14 13 13 13 13 12 10 7 5 2 1 2 2 1 0
1 0 1 3 5 6 10 12 12 12 12 14 15 13 15 19 23 26 27 28 25 19 13 11 11 12 11 10 11 12 13 13 13 13 11 9 6 4 2 1 1 1 0 0
0 0 1 3 6 7 10 12 12 12 13 13 11 12 15 19 21 23 24 23 20 16 11 8 8 9 8 8 9 11 13 13 12 12 11 8 6 4 2 1 1 0 0 0
1 1 1 3 6 9 11 13 12 12 12 10 9 10 14 17 19 21 22 20 19 17 13 9 7 7 7 7 7 10 12 12 11 11 10 7 5 4 3 3 2 1 1 0
4 3 2 3 6 10 12 13 12 11 10 8 8 10 12 14 16 19 21 20 19 18 14 10 8 7 6 6 7 8 10 10 10 10 8 6 4 3 3 3 3 3 2 1
6 5 3 3 6 9 11 12 12 10 8 7 8 9 10 11 13 15 18 19 18 16 13 11 9 7 5 5 6 8 8 8 7 7 6 4 3 3 3 3 3 3 3 3
5 4 4 4 5 7 8 9 10 9 8 8 8 9 10 11 12 13 14 15 14 11 10 10 10 7 5 5 6 8 8 5 4 4 4 3 3 3 3 3 3 3 3 3
2 2 2 3 3 4 4 6 7 8 8 9 9 9 10 11 13 13 13 12 11 9 8 7 7 7 6 5 7 8 7 5 2 2 3 3 3 3 3 3 3 3 3 3
2 1 1 1 1 2 2 3 5 5 7 8 9 9 10 11 12 13 12 12 10 8 7 6 6 6 6 4 4 6 5 4 3 3 3 3 3 3 3 3 3 3 3 3
3 3 2 1 1 1 2 3 3 4 5 6 7 8 10 11 13 13 12 11 9 7 5 4 4 5 4 2 2 3 4 3 3 3 3 3 3 3 3 3 3 3 3 3
3 3 3 3 2 3 3 3 3 3 4 6 6 7 9 11 12 11 10 8 6 4 2 2 2 2 2 2 2 3 3 3 3 3 3 3 3 3 3 3 3 3 3 2
3 3 4 4 3 3 3 3 3 3 4 5 5 5 7 9 9 8 7 5 2 1 1 1 1 1 2 3 3 3 3 3 3 3 3 3 3 3 3 3 3 3 2 1
1 2 3 3 2 2 2 2 2 2 2 2 2 2 2 4 5 5 4 2 0 1 2 2 2 3 3 3 3 3 3 3 3 3 3 3 3 3 3 3 3 3 2 1
0 1 1 1 1 1 1 1 1 1 1 0 0 0 0 1 2 2 1 0 0 1 2 3 3 3 3 3 3 3 3 3 3 3 3 3 3 3 4 4 4 3 2 1
0 0 0 0 0 0 0 0 0 0 0 0 0 0 0 0 0 0 0 0 0 0 1 1 3 3 3 3 3 3 3 3 3 3 3 3 3 4 4 5 5 4 3 2
0 0 0 0 0 0 0 0 0 0 0 0 0 0 0 0 0 0 0 0 0 0 0 1 2 3 3 3 3 3 3 3 3 3 3 3 3 3 4 4 4 5 5 4
0 0 0 0 0 0 0 0 0 0 1 1 1 0 0 0 0 0 0 0 0 0 0 0 1 2 3 3 3 3 3 3 3 3 3 3 3 3 3 3 4 5 5 4

GEFSNGP_con_prob3kmehi_234.txt.gz
EHI
0 0 0 0 0 0 0 0 0 0 0 1 4 8 15 20 23 29 39 45 47 45 42 39 41 45 42 38 38 38 36 33 29 26 26 25 23 22 23 23 21 18 15 14
0 0 0 0 0 0 0 0 0 0 1 3 6 10 17 22 24 29 39 45 46 44 42 41 43 45 43 40 41 40 37 33 30 27 26 25 23 22 23 23 22 19 16 15
0 0 0 0 0 0 0 1 1 1 2 4 8 12 17 22 26 30 38 43 45 44 44 46 45 44 44 43 42 40 37 34 30 28 26 24 23 23 23 22 21 19 16 15
0 0 0 0 0 0 0 1 2 2 3 4 7 9 14 21 27 31 36 41 44 45 47 49 46 43 44 44 41 38 36 33 29 27 25 23 22 23 23 22 20 18 16 15
0 0 0 0 0 0 0 1 1 1 2 5 5 5 9 19 27 32 35 40 44 46 48 49 46 43 43 44 41 36 33 30 27 26 25 23 22 22 22 22 21 19 16 16
0 0 0 0 0 0 0 0 0 1 3 5 5 6 12 21 29 33 36 41 46 48 51 52 49 46 46 45 41 36 31 28 25 23 23 23 23 21 21 22 22 20 18 17
0 0 0 0 0 0 1 2 2 3 3 4 7 14 22 29 34 38 40 45 49 50 54 55 51 49 50 48 43 38 33 29 25 22 21 22 22 21 21 21 20 20 18 18
0 0 0 1 2 3 4 6 6 5 4 5 11 20 28 34 40 43 44 47 47 49 53 55 52 50 51 49 42 37 33 30 27 23 21 22 22 21 21 21 20 18 16 15
1 2 3 5 7 9 10 10 9 7 7 11 17 24 30 36 41 44 44 44 42 43 49 52 51 50 49 46 38 32 31 31 29 25 23 23 23 21 21 20 18 16 12 10
3 6 9 10 11 12 13 13 12 8 9 14 21 26 30 36 41 44 42 41 40 40 45 49 49 47 46 41 33 28 29 30 29 26 23 23 22 20 19 18 16 13 10 8
6 10 12 12 12 13 15 16 16 13 13 19 26 30 32 37 43 45 43 41 40 41 44 48 48 45 40 35 29 27 28 29 27 24 23 21 19 17 16 14 12 10 9 8
7 11 13 13 13 16 19 21 22 22 23 28 34 36 36 40 44 45 42 39 38 39 44 48 47 42 35 29 26 25 26 26 24 22 21 19 16 13 11 9 7 5 5 6
11 13 16 18 19 21 25 28 29 31 34 39 41 41 40 42 42 39 36 36 36 37 40 43 43 39 33 26 23 23 22 19 18 18 18 17 14 12 10 7 5 3 2 2
13 16 21 24 24 27 30 33 35 39 41 43 42 39 39 40 38 35 34 35 34 34 35 37 38 36 31 24 20 18 15 12 12 14 16 15 13 11 9 9 7 5 2 0
13 15 20 22 24 26 28 30 34 38 39 38 36 34 35 36 36 36 36 36 33 31 32 34 36 35 29 22 17 15 12 10 11 14 16 15 11 9 9 10 9 8 4 2
13 13 14 16 20 22 21 21 24 26 27 28 29 30 30 32 34 35 34 33 30 29 31 33 33 32 27 22 19 17 14 11 11 14 16 14 12 10 10 10 10 9 6 4
13 12 11 12 16 18 16 15 16 17 18 20 24 26 26 27 29 30 29 29 28 29 30 31 31 27 24 22 20 17 15 12 11 13 15 14 13 11 10 10 10 9 6 4
10 10 9 9 12 13 13 13 15 16 17 19 22 23 22 21 23 25 24 24 25 27 29 29 27 24 22 21 19 16 14 12 11 12 13 13 12 10 9 9 9 8 5 4
10 9 8 8 8 9 10 13 15 17 18 19 20 21 19 18 19 20 19 19 22 25 27 25 22 21 20 17 15 14 12 11 11 11 12 12 11 9 8 7 7 6 4 3
11 10 9 8 7 7 8 10 13 16 18 18 18 18 17 17 17 17 15 16 19 23 23 20 17 18 18 13 10 11 11 9 9 10 10 10 9 8 7 6 5 4 3 3
12 12 10 8 8 7 7 8 10 13 15 17 17 16 16 16 16 16 15 15 17 19 17 14 14 16 15 11 8 10 10 10 10 10 10 9 8 6 5 4 4 3 3 3
14 12 10 8 8 8 8 8 10 11 13 15 16 16 17 16 15 15 15 15 15 14 11 10 10 10 9 8 8 10 11 12 12 11 10 7 6 4 2 2 3 3 3 3
10 9 7 6 7 8 10 10 10 11 13 13 15 16 16 16 14 12 11 11 10 8 7 6 5 4 3 5 7 9 11 12 12 11 7 4 4 3 2 2 3 3 3 3
5 4 3 3 4 7 10 11 11 12 13 14 14 15 14 12 10 9 8 7 5 4 3 2 2 1 1 3 6 8 9 10 9 8 5 2 2 3 3 4 4 4 4 4
2 1 1 1 2 5 8 10 10 11 13 13 13 13 11 8 6 8 9 7 3 2 2 2 1 0 1 4 5 6 7 8 7 5 4 3 3 4 4 5 6 6 5 5
1 1 1 1 2 4 6 8 8 8 10 10 10 10 8 6 6 8 9 7 3 2 3 4 2 1 2 3 3 4 5 6 5 4 3 4 5 5 5 5 6 6 5 5
2 2 2 2 3 4 6 6 6 6 6 6 6 6 7 6 7 7 6 4 2 2 4 5 3 1 1 1 1 2 4 5 5 4 3 4 5 5 4 4 4 4 4 4

GEFSNGP_con_prob3kmehi_240.txt.gz
EHI
0 0 0 0 0 0 0 0 0 0 1 4 8 14 22 30 34 40 53 63 68 71 77 83 83 80 73 64 61 60 60 61 60 55 48 43 40 38 37 37 36 36 34 32
0 0 0 0 0 0 0 0 0 0 2 6 11 17 26 33 37 44 54 63 69 71 75 78 78 76 71 65 62 61 58 57 56 52 45 40 38 37 37 37 36 35 31 29
0 0 0 0 0 0 0 0 1 1 3 8 15 21 29 35 39 45 53 61 67 69 70 72 72 71 69 65 64 62 57 54 51 48 43 38 36 36 37 37 36 33 30 27
0 0 0 0 0 0 0 1 2 3 5 9 16 23 28 32 37 43 50 57 62 63 64 67 69 70 67 64 63 61 56 51 48 46 43 40 39 38 38 38 36 33 31 30
0 0 0 0 0 0 1 2 3 4 6 10 16 21 25 29 34 42 50 56 58 57 61 67 71 71 67 63 62 60 54 50 48 45 42 41 42 42 41 40 37 33 32 32
0 0 0 0 0 0 2 3 4 4 7 12 15 18 23 29 36 45 54 59 59 60 64 70 73 73 69 64 62 59 54 50 48 44 41 41 43 44 45 42 38 33 31 32
0 0 0 0 0 3 7 9 8 6 8 12 14 17 24 32 41 50 56 60 63 67 69 72 74 73 70 68 65 61 56 52 49 44 40 39 43 47 47 44 37 33 32 32
1 2 3 4 6 11 18 19 14 10 12 16 17 22 30 38 45 52 55 58 63 69 71 72 71 70 69 69 67 62 59 57 53 46 41 40 44 46 46 42 35 31 30 31
4 5 8 10 13 18 23 21 16 14 18 22 24 30 38 44 50 53 54 56 59 62 67 69 67 65 66 67 66 62 60 61 56 48 46 46 44 41 40 37 31 28 27 26
7 9 11 12 14 16 17 14 12 14 19 24 27 33 42 50 54 55 55 56 55 57 62 65 63 61 62 63 63 60 57 56 51 46 47 48 43 36 32 29 27 27 26 24
10 12 12 12 14 15 14 12 12 15 20 24 28 33 41 51 55 54 54 54 53 55 58 60 60 59 59 61 60 55 51 47 43 39 38 39 36 28 23 21 20 22 24 23
15 17 15 14 16 18 18 18 20 22 25 29 33 37 42 50 52 51 52 52 53 53 55 57 58 58 58 60 57 50 44 41 37 32 30 30 28 23 18 14 12 13 15 16
19 17 15 14 16 19 22 25 28 30 33 37 41 43 45 48 50 49 49 52 51 50 52 55 57 56 55 56 52 46 41 38 33 29 26 26 26 24 18 13 10 8 7 6
17 14 12 12 14 19 25 29 31 34 37 42 44 43 44 45 47 47 47 48 47 46 48 52 54 52 50 49 47 43 39 35 30 26 25 25 26 25 21 17 13 9 5 3
14 13 14 14 15 20 27 30 30 33 38 41 42 41 40 40 43 45 44 44 45 43 45 49 50 49 46 44 43 41 36 31 27 24 22 22 23 24 23 20 17 13 10 7
14 15 17 18 20 23 26 27 27 31 37 39 39 39 38 38 42 44 42 43 45 46 47 48 48 47 45 42 41 38 32 26 23 22 19 18 20 22 22 22 19 16 13 12
14 16 20 23 24 24 24 24 25 29 33 35 34 34 36 38 42 44 42 41 44 46 46 44 43 43 43 41 38 33 28 24 21 20 19 18 18 19 20 21 19 17 14 12
13 15 20 23 23 22 20 19 22 26 29 29 27 28 32 37 41 42 40 39 40 40 39 36 35 36 36 35 32 28 26 25 23 22 21 18 16 16 17 17 16 14 13 11
12 14 16 18 19 18 15 15 17 22 26 28 27 27 30 34 38 39 38 36 34 34 34 31 29 30 31 30 28 26 25 24 24 24 21 17 14 14 13 13 12 12 12 11
13 13 15 16 16 15 15 14 15 20 24 28 30 30 29 31 34 36 34 31 30 32 31 27 24 26 28 26 25 24 23 22 22 21 18 15 13 11 10 10 12 12 11 11
13 14 16 16 15 15 16 16 18 22 24 27 29 28 28 30 31 31 29 27 28 28 24 21 20 21 22 21 19 20 20 19 20 18 16 15 13 11 10 11 12 11 10 10
16 16 15 15 16 17 18 20 22 24 25 25 26 25 26 29 29 28 27 26 24 20 16 16 15 14 14 13 13 15 17 17 17 17 16 16 14 12 10 11 11 10 9 8
18 16 14 14 16 18 20 22 23 23 23 23 23 23 24 26 27 26 24 20 16 12 11 10 8 6 6 7 9 10 12 12 12 13 14 15 13 11 10 9 10 10 9 7
18 16 14 14 15 17 18 19 19 19 19 19 19 20 20 21 23 22 18 11 7 7 7 5 2 1 1 3 4 5 6 6 7 9 11 12 11 10 10 9 9 9 8 7
17 16 15 14 15 16 15 14 14 14 14 14 15 16 16 17 18 18 13 6 2 3 4 2 0 0 0 1 1 1 2 3 5 7 9 9 8 8 8 8 8 8 8 8
15 14 14 14 14 14 12 11 11 12 11 11 12 13 13 14 14 12 9 4 1 2 3 2 1 0 0 0 0 0 1 3 5 6 7 7 6 5 5 5 6 7 8 7
13 11 11 12 11 11 10 10 10 10 11 12 13 13 12 11 10 6 4 3 2 2 3 3 2 1 0 0 0 0 1 2 4 5 6 6 4 3 3 4 4 5 6 5

GEFSNGP_con_prob3kmehi_246.txt.gz
EHI
0 0 0 0 0 0 0 0 0 0 1 2 7 14 23 30 31 29 29 31 35 39 43 46 46 46 46 44 44 45 46 46 42 37 35 34 33 31 27 23 21 21 22 23
0 0 0 0 0 0 0 0 0 1 2 5 10 18 25 29 30 27 28 34 38 40 44 44 44 45 46 46 45 47 47 45 41 36 34 33 31 31 29 26 24 23 24 25
0 0 0 0 0 0 0 0 1 2 4 7 13 19 24 29 30 28 30 37 41 42 43 44 43 44 45 46 48 48 47 43 39 35 32 30 28 28 29 29 27 26 26 26
0 0 0 0 0 0 0 1 1 3 6 10 14 17 21 26 30 32 33 37 41 42 43 44 44 45 46 47 48 46 44 41 38 35 31 28 26 25 26 26 25 24 24 25
0 0 0 0 0 1 1 2 3 5 8 12 14 16 18 23 28 32 35 38 40 42 44 44 44 46 49 49 46 43 41 38 35 33 30 27 26 25 24 24 22 20 21 22
0 0 0 0 1 2 3 3 5 8 11 13 15 16 17 20 26 33 37 38 38 41 44 44 42 44 47 47 43 39 37 34 31 29 28 27 27 26 25 25 23 21 20 19
0 0 0 0 1 2 3 3 6 10 13 14 15 16 18 23 30 37 41 39 37 40 43 43 42 44 45 43 39 35 34 31 28 26 26 27 26 26 26 26 25 22 20 18
0 0 0 0 1 2 3 5 7 12 16 17 19 21 24 29 35 40 43 42 41 42 43 43 45 47 45 40 36 35 34 32 29 25 25 26 25 25 25 24 23 21 19 17
1 1 1 1 2 4 6 8 12 17 20 23 26 28 30 33 37 41 43 44 46 46 45 44 46 48 44 40 39 39 38 34 29 26 24 24 24 23 22 21 19 18 17 16
3 3 3 3 4 7 10 13 18 22 26 30 32 33 33 34 37 41 43 45 47 46 44 43 45 45 43 41 42 43 40 34 29 25 21 20 20 19 19 19 18 17 17 16
5 5 6 6 7 10 14 17 22 27 32 35 37 37 36 35 36 39 42 43 44 42 41 40 41 42 41 40 40 41 39 34 30 27 21 16 14 14 13 14 15 16 15 14
5 6 6 7 9 13 17 20 24 30 35 38 38 38 38 35 33 34 37 40 39 37 36 37 37 39 39 37 36 37 36 33 31 28 22 16 13 11 9 9 9 9 9 8
6 6 6 7 9 14 18 20 25 31 35 36 35 35 35 31 27 28 31 33 32 32 33 34 35 36 36 34 34 34 32 30 29 26 22 18 15 12 8 7 6 4 3 3
7 7 6 7 10 15 18 21 26 30 32 31 30 29 28 26 23 23 24 26 27 28 30 32 34 33 31 30 31 32 30 27 25 24 23 21 19 15 11 9 7 5 2 1
9 8 8 9 12 16 19 21 25 28 29 27 25 23 22 22 21 20 20 21 23 24 25 27 29 28 26 26 28 29 27 24 23 24 23 23 23 20 16 12 10 8 4 2
9 10 11 12 14 16 19 20 22 24 24 23 20 18 16 17 18 18 17 17 18 19 20 23 25 25 24 24 25 25 23 21 21 22 20 20 23 22 19 17 14 10 7 5
7 8 11 12 13 15 18 18 19 20 19 18 17 16 14 13 14 15 15 14 15 15 16 19 21 21 21 20 20 20 18 18 19 19 18 17 17 17 18 18 17 14 9 7
6 8 11 11 12 14 16 16 16 17 16 16 15 14 13 12 13 14 15 15 15 15 15 15 15 15 16 16 15 14 13 14 17 17 16 14 12 12 13 15 17 15 10 6
7 10 11 12 13 14 15 14 14 14 14 13 12 11 11 12 13 14 15 16 17 18 16 13 11 11 13 14 14 12 11 12 13 13 12 10 8 8 8 10 12 12 9 5
7 8 10 11 13 14 14 14 13 13 11 10 9 10 11 12 14 15 15 16 18 17 15 12 10 11 12 12 12 11 11 11 11 10 10 8 6 5 5 5 6 6 6 5
6 6 8 11 12 12 12 13 14 13 10 7 7 9 11 12 13 14 14 14 14 13 12 10 10 10 10 9 10 11 11 11 10 10 9 7 5 4 4 3 3 3 4 4
4 4 7 10 12 12 12 12 12 11 9 8 7 8 9 11 12 14 13 11 9 9 10 9 8 7 7 8 9 9 9 9 9 9 8 7 5 4 3 3 3 3 2 2
4 5 7 10 12 12 12 10 9 8 9 9 8 8 8 10 12 13 12 8 6 7 7 6 5 4 5 6 8 7 7 6 6 6 5 4 3 3 2 2 2 1 1 1
6 7 7 9 9 9 9 7 6 6 7 9 9 8 9 10 12 12 9 6 3 3 3 2 1 1 2 4 6 5 5 4 3 3 2 2 1 1 1 1 1 0 0 0
8 7 7 6 6 6 5 4 4 4 5 7 8 8 8 10 11 9 6 3 1 1 1 0 0 0 1 2 3 3 3 1 1 1 1 0 0 0 0 0 0 0 0 0
6 5 4 4 4 4 3 3 3 3 4 5 5 6 7 9 8 6 3 1 0 0 1 0 0 0 0 1 1 1 1 0 0 0 0 0 0 0 0 0 0 0 0 0
4 4 3 3 3 3 3 3 3 3 3 4 4 5 6 8 6 3 1 0 0 0 1 0 0 0 0 0 0 0 0 0 0 0 0 0 0 0 0 0 0 0 0 0

GEFSNGP_con_prob3kmehi_252.txt.gz
EHI
0 0 0 0 0 0 0 0 0 0 0 0 2 5 8 9 10 12 13 10 7 7 9 12 14 13 12 12 14 17 20 20 19 16 14 13 11 9 8 6 6 6 6 4
0 0 0 0 0 0 0 0 0 0 0 1 3 6 8 8 8 10 11 9 7 8 9 11 13 13 12 12 14 19 21 20 17 15 14 14 13 11 10 8 7 6 5 4
0 0 0 0 0 0 0 0 0 0 1 3 5 6 7 7 8 9 9 8 7 7 8 10 12 12 12 13 16 21 21 18 15 14 15 16 15 13 12 11 10 8 6 5
0 0 0 0 0 0 0 0 0 1 2 4 6 7 7 7 8 9 9 8 6 5 8 12 15 14 13 16 20 21 19 16 15 15 16 18 18 15 14 14 13 10 8 7
0 0 0 0 0 0 0 0 1 2 3 4 6 8 9 9 10 11 11 9 6 6 10 15 18 18 18 21 23 21 17 15 15 17 19 19 18 16 14 14 13 10 9 8
0 0 0 0 0 0 0 1 2 3 4 5 7 8 10 11 13 14 14 12 10 11 14 18 21 22 23 24 21 17 15 14 16 19 20 19 17 15 12 11 11 10 9 8
0 0 0 0 0 0 0 1 2 4 5 7 8 9 11 14 17 18 16 16 16 17 18 20 23 24 23 19 14 12 13 15 18 21 21 19 16 14 11 10 10 10 10 9
0 0 0 0 1 1 1 2 4 6 8 9 9 9 11 14 18 20 19 19 19 19 19 19 22 22 18 12 9 10 13 15 18 21 21 19 16 14 12 11 10 10 10 10
0 0 0 1 2 2 3 6 8 10 11 11 10 10 10 11 16 21 22 21 20 18 16 15 17 17 14 11 10 11 13 14 16 19 19 17 15 13 12 12 11 12 12 11
0 0 2 4 5 5 7 10 12 13 13 12 11 10 9 10 14 20 23 22 22 19 15 12 14 15 16 16 16 15 15 14 14 15 16 15 12 11 11 13 14 15 14 12
0 1 4 7 7 8 10 12 13 13 13 13 12 12 11 12 15 19 21 20 20 18 16 14 14 17 19 21 21 20 19 18 15 13 13 13 12 10 10 12 14 14 13 12
0 1 4 6 6 7 9 11 11 11 12 13 13 14 15 16 17 17 16 15 14 14 15 16 17 18 20 22 24 22 21 20 17 12 12 14 15 13 10 9 9 8 8 8
1 2 3 4 4 5 7 8 8 9 10 11 12 14 18 20 19 15 12 11 11 11 13 16 18 19 19 21 23 22 20 19 17 14 13 14 15 14 11 8 6 5 4 3
3 4 4 4 3 5 7 8 8 9 9 10 11 14 18 20 19 16 13 11 9 9 12 14 17 18 18 19 20 19 16 14 14 14 14 12 12 12 11 10 9 7 4 2
3 4 4 4 5 6 7 8 9 9 8 9 11 14 16 17 17 16 13 11 9 9 11 13 16 17 16 15 15 15 12 10 10 11 11 11 11 11 11 11 12 10 7 5
2 4 5 6 8 9 8 7 7 7 7 8 10 12 14 15 15 15 12 10 8 7 7 10 13 16 14 11 11 12 10 6 6 7 8 10 11 11 11 11 12 11 8 6
1 2 5 8 11 11 9 7 6 5 5 6 7 9 11 12 13 13 11 10 7 5 5 6 10 13 12 10 9 9 8 6 5 7 8 8 10 11 10 10 10 9 7 6
0 1 3 6 9 10 8 7 6 5 5 6 6 7 9 10 11 11 10 9 7 5 4 4 6 9 9 8 7 7 7 7 7 8 8 8 9 9 9 9 8 6 5 4
0 0 2 4 6 6 6 7 7 5 5 6 7 8 9 9 9 9 9 8 7 5 3 2 3 5 6 6 6 6 7 7 8 8 8 8 8 9 9 9 7 5 4 3
0 0 2 4 5 4 5 6 6 4 4 5 7 8 9 10 9 9 8 7 6 5 3 2 3 3 4 5 6 6 6 7 8 8 8 8 9 9 9 8 7 5 4 3
0 0 1 3 4 4 5 5 4 3 4 5 6 7 9 10 10 9 8 6 5 4 3 3 4 4 3 4 5 6 6 6 8 8 8 8 8 8 7 6 6 5 4 3
0 1 2 4 5 5 4 3 3 3 3 4 6 7 8 9 9 8 6 4 3 2 1 2 3 3 3 4 4 5 5 5 6 6 6 5 5 5 4 4 4 4 3 3
1 2 3 4 5 4 2 1 1 2 2 3 5 6 7 8 8 6 4 2 1 0 0 1 1 1 2 3 4 5 5 4 4 4 4 3 3 3 3 3 3 3 3 3
3 3 3 3 3 2 0 0 0 1 1 3 4 5 6 6 6 4 3 1 0 0 0 0 0 0 1 2 3 4 5 5 3 3 2 3 3 3 3 3 3 3 2 2
3 3 2 2 1 0 0 0 0 1 2 2 2 2 4 5 4 2 1 0 0 0 0 0 0 0 0 1 1 1 3 3 2 1 1 1 2 2 2 2 2 1 1 1
2 1 1 1 0 0 0 0 0 1 2 2 1 1 2 3 2 1 0 0 0 0 0 0 0 0 0 0 0 0 1 1 1 0 0 0 1 1 1 0 0 0 0 0
1 0 0 0 0 0 0 0 0 0 1 1 0 0 1 1 1 0 0 0 0 0 0 0 0 0 0 0 0 0 0 0 0 0 0 0 0 0 0 0 0 0 0 0

GEFSNGP_con_prob3kmehi_258.txt.gz
EHI
0 0 0 0 0 0 0 0 0 0 1 2 3 5 8 11 16 19 22 26 30 37 44 47 47 45 41 37 37 39 41 41 40 40 39 36 31 29 28 25 24 26 25 21
0 0 0 0 0 0 0 0 0 0 1 2 3 6 11 14 18 21 23 25 29 36 44 47 47 47 46 43 42 42 43 43 41 40 39 37 35 33 32 29 28 29 28 25
0 0 0 0 0 0 0 0 0 0 1 3 4 7 12 16 19 22 24 26 30 36 43 46 47 48 49 49 46 45 45 44 42 40 38 38 38 38 37 34 32 31 30 30
0 0 0 0 0 0 0 0 1 1 2 4 5 7 11 16 21 24 25 29 34 38 41 46 49 49 50 50 47 46 45 44 41 39 38 39 40 40 39 37 34 32 31 30
0 0 0 0 0 0 0 1 2 4 6 7 6 7 12 19 25 28 29 32 35 37 43 51 55 55 54 52 49 48 46 41 38 37 38 40 41 40 39 37 35 32 30 28
0 0 0 0 0 0 0 1 4 6 8 8 8 8 14 23 29 33 34 34 36 38 45 56 61 61 59 56 54 51 43 37 36 37 38 40 42 42 40 38 34 31 29 27
0 0 0 0 0 0 1 3 5 6 8 9 10 11 16 24 31 35 37 38 39 41 47 57 63 62 58 58 58 51 41 35 35 37 39 40 42 42 40 38 34 31 29 29
0 1 1 1 2 3 4 6 6 7 8 10 11 13 16 24 32 38 42 41 41 45 51 57 61 59 56 55 56 52 45 37 34 35 36 38 38 37 35 33 30 28 28 29
2 3 4 5 6 8 10 10 11 11 10 11 12 13 17 25 35 41 43 42 41 45 51 55 55 54 52 51 51 52 49 42 36 33 32 32 31 28 25 24 23 22 24 27
5 7 8 9 10 12 14 14 13 13 12 11 13 15 20 30 38 42 41 40 40 41 46 50 50 47 46 47 48 49 48 45 39 33 29 26 25 22 19 17 18 19 22 24
7 9 10 11 12 14 15 15 13 12 12 12 14 17 23 31 40 41 39 38 38 39 42 45 46 43 42 43 45 46 44 42 37 31 26 22 20 17 14 14 14 16 17 18
9 10 11 11 12 13 14 13 13 12 13 14 15 18 23 31 37 39 37 36 38 40 41 42 44 42 40 40 42 41 39 35 32 28 23 18 17 15 12 10 8 8 9 8
11 11 11 11 9 10 11 12 12 13 14 15 17 20 25 30 34 35 35 33 35 38 39 40 41 39 36 36 36 36 33 29 28 26 21 17 16 16 15 11 6 4 2 2
9 10 11 10 8 8 9 9 10 12 15 16 19 24 28 31 31 30 29 29 31 34 36 37 37 35 32 31 31 31 29 27 27 26 22 19 18 18 18 15 11 8 5 3
7 9 10 10 9 9 9 8 9 11 14 17 20 25 30 31 29 25 25 27 30 33 33 33 31 29 28 28 28 28 28 27 28 28 24 21 20 19 18 16 14 13 11 9
7 7 8 9 10 10 11 11 11 12 14 16 19 22 26 27 25 23 24 28 32 33 31 28 25 23 25 27 27 27 26 24 24 24 22 19 19 18 16 14 12 13 13 13
6 6 7 8 9 10 11 13 12 12 12 15 17 19 20 21 21 20 23 28 31 30 26 22 20 20 23 25 25 23 21 18 16 17 18 17 16 16 14 11 10 11 12 13
6 6 6 8 9 8 8 9 10 10 10 13 15 16 16 16 17 18 20 23 25 23 20 17 15 16 18 20 20 18 15 12 11 12 14 13 12 11 9 8 8 8 10 11
6 6 6 7 7 7 7 7 7 8 9 11 13 13 12 12 13 16 18 19 18 17 16 14 12 11 14 16 15 13 11 10 9 9 10 9 7 6 5 5 5 5 7 9
5 5 4 4 5 7 9 8 7 7 9 10 11 11 10 9 11 14 16 15 14 14 14 13 12 12 12 12 11 10 10 10 10 9 8 7 7 6 5 4 4 4 5 6
3 2 2 2 4 7 9 10 9 7 8 10 10 10 9 9 10 11 12 13 12 12 12 13 13 13 12 10 9 9 11 13 13 12 10 9 9 9 8 7 6 5 6 6
1 1 1 3 4 6 8 8 7 7 7 8 9 9 10 10 9 8 9 11 10 9 10 11 10 10 9 9 10 11 12 14 13 12 10 9 9 9 9 8 8 7 7 8
1 1 2 3 4 5 6 6 5 6 6 7 7 9 10 10 8 7 7 9 9 8 8 7 5 4 6 9 10 11 11 11 10 8 6 6 6 6 6 6 6 7 7 7
2 2 2 2 3 4 5 4 5 6 6 6 7 7 8 8 8 8 8 7 6 5 5 3 1 1 3 6 7 8 8 8 7 5 4 3 4 4 4 4 4 4 4 4
3 3 2 1 2 3 4 4 5 5 5 5 5 5 4 5 7 9 9 6 4 4 4 2 0 0 1 2 4 4 5 5 5 4 3 3 3 3 3 3 3 2 1 1
3 3 2 1 1 2 3 3 3 3 3 3 3 2 1 2 5 8 9 7 5 5 5 2 0 0 0 1 2 3 3 2 2 1 1 2 2 2 2 2 2 1 0 0
3 3 2 2 1 2 3 3 3 2 2 2 2 1 1 2 5 7 7 7 7 6 5 2 0 0 0 0 1 1 1 0 0 0 0 1 1 1 1 1 1 0 0 0

GEFSNGP_con_prob3kmehi_264.txt.gz
EHI
0 0 0 0 0 0 0 0 0 1 3 3 2 4 10 13 14 18 25 36 51 62 66 66 68 68 65 62 63 66 67 67 67 66 62 60 58 54 52 48 45 44 44 43
0 0 0 0 0 0 0 0 0 1 3 3 2 4 11 15 16 20 26 34 47 60 68 68 66 64 63 64 66 67 65 63 63 63 61 59 56 54 54 51 47 46 46 45
0 0 0 0 0 0 0 0 1 3 4 4 3 6 13 19 22 23 25 30 41 54 65 67 64 62 62 63 66 66 62 59 59 61 60 58 54 55 56 54 50 48 48 47
0 0 0 0 0 1 2 1 2 4 5 4 5 10 17 23 27 27 28 31 38 47 57 62 62 61 62 62 64 66 61 57 59 61 60 57 55 56 56 53 51 51 49 48
1 0 0 0 0 1 3 4 3 4 5 5 8 13 21 27 31 33 35 37 41 43 48 54 57 60 62 62 64 67 65 60 61 62 60 58 58 57 54 50 50 51 49 47
1 0 0 0 0 0 3 5 6 7 9 11 12 16 22 26 31 37 39 39 41 41 45 52 56 60 61 60 62 66 66 65 64 62 60 59 58 57 53 49 47 46 45 43
1 0 0 0 0 2 7 11 12 12 15 16 16 17 21 26 32 40 40 37 39 44 50 57 59 59 59 60 61 63 63 63 64 60 56 55 57 56 52 47 44 40 38 38
1 1 2 3 4 9 16 20 17 15 15 15 15 17 21 29 38 44 43 40 42 51 58 61 59 58 59 61 63 63 61 61 61 58 52 50 53 53 49 45 41 36 32 32
3 4 6 8 10 14 19 20 17 13 12 11 12 16 23 34 44 48 47 45 47 54 61 61 59 58 59 61 63 63 62 61 62 60 52 47 46 46 44 42 39 35 32 31
6 6 7 9 11 12 14 13 12 11 12 12 13 17 25 37 44 47 47 47 49 54 59 59 58 57 56 57 59 60 60 59 59 57 51 44 41 41 41 38 36 35 34 33
8 8 8 8 9 9 10 10 9 10 12 12 13 16 26 36 41 42 43 45 49 55 58 58 58 56 53 52 55 57 56 55 52 47 43 40 36 34 32 29 27 26 27 28
10 11 10 10 8 7 9 11 11 11 12 12 12 15 24 35 40 41 43 46 50 55 58 58 57 55 51 51 53 54 53 51 45 38 34 34 30 26 21 16 12 11 13 14
11 11 12 12 10 8 10 12 13 13 14 15 16 17 25 35 42 43 44 45 49 53 55 55 54 53 52 52 53 54 51 45 40 33 29 27 25 22 18 12 7 4 3 3
9 10 11 13 12 11 12 13 14 15 16 17 18 21 28 37 43 42 39 41 44 47 48 49 50 51 51 52 52 51 46 39 34 29 25 23 22 20 19 16 13 9 5 2
10 9 10 12 12 11 11 12 13 15 16 18 20 23 30 37 40 37 35 37 40 39 41 45 48 50 51 51 49 45 38 32 28 25 23 20 17 16 18 19 17 13 9 7
10 9 10 11 10 9 10 10 11 13 15 18 21 24 29 34 36 34 34 36 37 37 39 44 47 49 49 48 44 38 31 25 21 21 20 17 13 12 14 17 17 14 12 10
9 9 10 10 8 8 10 10 10 11 14 18 21 23 26 31 33 33 34 36 37 37 38 41 44 45 44 42 37 31 26 22 18 19 19 14 10 9 10 12 14 13 11 10
7 8 9 8 8 10 11 12 12 13 14 17 19 22 27 31 33 33 33 34 35 35 34 33 35 37 37 33 31 26 22 20 20 20 18 13 10 9 8 9 11 12 10 8
6 7 8 8 9 11 13 14 15 16 16 15 17 23 27 29 30 30 29 30 29 29 29 27 27 32 32 28 26 24 20 19 20 20 18 14 11 11 10 10 11 12 11 8
6 6 7 8 10 11 13 14 15 17 16 14 16 20 22 22 22 23 23 23 22 22 22 21 23 28 29 26 23 21 18 17 18 19 17 15 13 12 11 11 11 12 11 10
7 7 7 9 10 10 10 11 13 14 14 13 14 16 17 17 17 17 18 18 17 17 16 16 19 23 22 20 18 17 14 14 15 16 16 15 13 12 10 9 8 8 8 8
9 8 7 9 9 8 8 8 9 10 11 11 12 13 14 15 15 15 15 14 13 12 12 13 14 14 13 12 12 12 11 11 12 12 11 11 11 10 8 6 5 5 5 5
10 8 6 6 6 6 5 5 6 7 8 9 9 10 12 13 13 13 13 12 10 9 9 9 8 8 7 8 8 8 8 8 9 9 7 7 7 7 7 6 5 5 5 6
6 5 3 3 5 5 4 4 5 6 7 7 8 8 9 10 11 11 10 9 7 7 6 5 3 4 5 6 6 5 5 6 7 7 6 5 5 6 6 6 6 6 6 5
2 2 2 3 5 6 4 3 2 4 5 6 6 7 8 9 9 8 8 7 5 4 4 2 1 2 4 4 3 2 2 3 4 5 5 5 5 5 6 6 5 5 3 2
1 1 2 4 5 4 3 1 1 2 4 4 5 7 8 8 8 7 7 7 5 4 4 3 2 3 3 2 1 0 0 0 1 2 3 4 4 4 4 4 3 2 1 0
0 1 3 4 4 3 1 0 0 1 3 4 5 7 9 8 7 7 7 7 6 5 5 5 3 2 2 1 0 0 0 0 0 0 1 3 3 3 3 3 2 1 0 0

GEFSNGP_con_prob3kmehi_270.txt.gz
EHI
0 0 0 0 0 0 0 1 0 0 0 1 3 4 4 7 12 17 20 22 24 26 30 32 30 27 29 36 43 46 46 43 39 35 31 29 29 27 25 23 22 21 19 19
0 0 0 0 0 0 1 1 1 0 1 3 5 7 8 9 13 17 22 26 30 32 36 37 34 29 28 33 39 43 43 41 38 34 30 27 25 23 22 21 21 20 19 19
0 0 0 0 0 0 1 2 1 1 3 6 10 12 12 12 14 19 26 32 35 37 39 39 34 29 29 31 33 37 39 38 36 34 30 25 21 18 18 18 18 18 17 17
0 0 0 0 0 0 1 2 3 4 7 12 16 17 17 17 17 19 26 32 33 34 35 33 31 30 31 30 28 30 34 35 33 33 31 27 22 19 18 17 17 15 14 15
0 0 0 0 0 0 1 2 3 7 12 15 18 20 21 20 18 18 22 25 26 29 30 29 30 33 33 30 27 27 31 32 32 32 32 30 27 24 21 18 17 15 14 14
0 0 0 0 0 0 1 2 3 7 11 14 16 19 20 18 15 16 18 20 22 24 26 27 29 33 35 32 28 26 28 30 30 29 30 31 29 25 21 18 17 17 15 14
0 0 0 0 0 0 1 1 3 6 9 11 13 15 17 15 14 15 18 19 21 23 24 25 27 32 34 32 28 26 27 28 27 25 25 27 26 24 21 19 19 18 15 12
0 0 0 0 0 0 1 2 5 8 10 10 11 13 13 12 12 14 17 18 19 21 22 23 26 30 32 31 29 29 28 27 25 23 23 23 23 22 20 19 19 17 13 10
0 1 1 1 1 1 2 4 6 10 11 10 10 11 9 7 7 11 15 15 17 18 20 22 25 27 30 32 33 33 31 28 25 22 21 20 19 19 18 18 17 15 13 11
1 2 3 3 2 3 4 5 7 9 10 10 10 9 7 5 5 9 13 15 17 19 20 22 24 25 29 35 38 35 31 27 23 20 19 18 16 15 15 17 17 16 15 15
2 3 3 4 5 6 7 7 8 8 9 9 11 11 11 9 10 13 15 18 22 24 24 24 25 26 29 35 37 34 28 23 18 17 16 16 14 12 12 14 16 16 15 15
2 3 4 5 6 8 10 11 10 10 9 9 12 15 15 15 17 20 23 26 29 29 28 27 28 28 29 33 34 31 26 21 17 16 16 16 14 11 9 9 10 9 8 8
3 4 6 8 8 9 11 12 11 10 9 10 13 15 16 18 21 26 30 33 34 32 30 30 29 28 30 32 32 30 26 23 20 19 19 18 15 13 10 7 5 3 2 2
5 6 9 10 9 10 11 11 10 10 10 12 14 15 16 17 20 26 31 35 37 34 31 31 31 30 31 31 31 29 25 22 20 20 20 17 15 15 13 10 7 4 1 0
6 8 10 11 10 10 10 9 10 11 12 13 14 15 15 15 16 21 28 32 33 32 30 29 29 29 29 30 30 27 22 18 16 16 16 14 13 14 13 11 8 5 2 1
7 9 11 10 8 7 7 7 10 12 12 12 13 13 13 12 13 18 25 27 27 27 25 24 24 23 23 25 26 24 20 15 13 12 10 10 10 10 8 7 6 4 2 1
5 6 7 5 3 3 3 5 7 9 10 10 10 10 10 10 11 16 21 23 22 21 21 20 19 19 19 20 20 20 18 14 11 10 9 8 7 5 4 3 3 3 3 2
1 2 2 1 0 0 1 3 5 7 8 8 7 8 8 9 10 14 18 20 19 18 18 19 19 20 19 17 17 18 17 15 12 11 10 8 4 3 3 3 3 3 3 3
0 0 0 0 0 0 1 2 5 7 8 7 7 8 8 9 10 12 14 17 17 16 17 18 19 19 17 15 15 16 17 16 14 11 10 8 5 4 3 4 4 3 2 2
0 0 1 1 1 1 2 3 5 7 7 7 7 8 9 9 10 10 12 13 14 14 15 16 16 15 13 12 12 13 14 13 12 10 10 9 7 4 3 4 4 2 1 1
0 0 1 2 3 3 3 5 6 6 6 6 6 6 7 8 8 8 9 10 11 12 12 12 12 12 11 10 10 11 10 9 8 8 8 7 5 3 2 3 3 1 0 1
0 1 2 3 3 3 4 5 5 4 4 4 4 5 6 7 6 7 8 9 9 10 10 10 10 11 9 8 9 9 8 6 6 5 5 4 3 2 2 2 2 1 0 0
0 1 2 3 4 4 4 4 4 3 3 3 4 5 6 6 6 6 7 8 8 8 8 8 8 8 7 7 7 7 6 5 3 2 2 2 2 2 2 2 1 0 0 0
0 1 2 4 4 4 4 3 3 4 4 4 4 6 6 6 6 6 6 6 7 7 6 5 4 3 5 6 5 3 2 2 1 0 1 2 2 2 2 2 1 0 0 0
0 1 2 3 3 4 3 3 4 5 5 5 5 5 6 5 5 5 5 5 6 6 5 2 1 1 2 3 2 1 0 0 0 0 1 2 2 1 1 1 0 0 0 0
0 0 1 2 2 3 3 3 4 5 5 4 4 4 4 4 4 5 6 6 5 4 3 1 0 0 0 1 1 0 0 0 0 0 1 1 1 0 0 0 0 0 0 0
0 1 2 2 2 3 3 3 3 3 3 3 3 3 3 4 5 5 6 6 4 3 2 1 0 0 1 2 2 1 0 0 0 0 0 0 0 0 0 0 0 0 0 0

GEFSNGP_con_prob3kmehi_276.txt.gz
EHI
0 0 0 0 0 0 0 0 0 0 0 0 0 0 0 1 3 4 4 4 3 4 4 4 3 3 3 4 7 10 12 13 12 11 12 12 8 5 3 3 4 4 4 3
0 0 0 0 0 0 0 0 0 0 0 0 0 0 0 3 6 8 7 5 4 4 5 4 3 3 3 5 8 11 12 12 11 11 12 11 7 5 4 3 4 5 5 4
0 0 0 0 0 0 0 0 0 0 0 0 0 1 2 6 10 12 10 7 5 5 5 4 4 3 4 6 10 12 11 10 11 12 12 10 6 5 5 4 6 7 6 5
0 0 0 0 0 0 0 0 0 0 1 2 2 3 5 7 8 9 8 6 6 7 7 6 5 5 6 10 12 13 12 12 13 15 14 11 8 7 8 8 9 9 7 5
0 0 0 0 0 0 0 0 0 2 4 5 4 5 6 6 5 5 5 5 6 8 8 8 7 7 10 12 14 14 14 14 14 14 14 13 10 10 11 11 10 9 7 6
0 0 0 0 0 0 0 0 2 4 6 5 4 4 4 5 4 4 5 6 7 8 9 8 7 9 12 13 14 16 16 16 15 14 15 14 13 12 12 11 9 7 6 6
0 0 0 0 0 0 0 1 3 5 5 4 2 2 3 4 4 4 5 7 9 10 9 8 8 10 13 14 14 15 16 17 17 17 16 15 13 13 12 10 7 5 6 6
0 0 0 0 0 0 0 1 3 4 3 3 2 2 3 4 4 5 7 9 11 11 10 10 10 11 13 14 14 14 15 17 19 18 16 14 13 13 13 10 8 6 6 6
0 0 0 0 0 1 1 2 3 3 3 4 4 3 3 4 5 7 8 10 10 10 11 12 11 11 12 14 13 13 15 17 18 18 15 14 13 13 12 10 9 8 7 6
0 0 0 1 1 3 4 5 4 3 4 5 4 3 4 5 6 7 8 9 9 10 11 12 10 9 11 13 14 14 16 17 17 16 14 13 12 12 10 9 8 7 6 6
0 0 1 2 4 6 8 8 5 4 4 4 3 3 3 4 6 7 8 7 8 10 12 11 9 8 11 16 18 18 17 16 15 13 12 11 10 9 7 6 6 6 5 5
0 0 1 2 4 6 8 8 6 4 3 3 3 3 2 3 5 8 9 7 8 11 14 12 9 10 14 18 21 22 20 16 13 10 10 11 11 8 5 3 4 4 4 4
0 0 1 2 4 5 7 6 5 3 3 2 2 1 2 3 5 8 9 9 9 12 15 14 12 14 16 19 21 23 21 17 14 12 12 14 14 12 8 6 5 4 3 2
1 1 2 3 4 6 6 5 4 3 2 1 1 2 3 5 6 7 8 11 13 14 16 16 15 16 18 19 22 23 21 18 17 17 16 17 17 17 14 11 10 6 3 1
2 2 3 4 5 5 5 4 3 3 2 2 2 4 6 6 6 6 8 12 16 17 16 16 15 16 17 19 21 21 19 17 17 17 16 16 17 17 15 14 12 8 4 2
2 3 4 4 3 2 1 1 2 4 4 4 4 6 6 6 6 6 8 12 15 17 16 14 14 16 17 18 19 18 15 12 11 11 12 13 15 15 13 12 10 8 5 3
1 1 2 2 1 1 0 1 2 5 5 5 5 6 6 6 7 8 8 9 11 14 14 13 14 16 17 17 16 12 9 6 6 7 8 10 12 12 10 9 8 7 5 4
0 0 1 0 0 1 1 2 3 5 5 4 4 5 6 6 7 8 7 7 9 11 10 10 11 13 13 14 12 8 5 3 4 6 6 7 8 8 7 6 6 6 5 4
0 0 0 0 0 0 1 2 3 4 5 4 4 5 6 5 5 7 7 7 8 8 8 7 8 9 10 10 8 5 3 3 3 4 4 4 4 4 3 4 5 5 4 3
0 0 0 0 0 0 1 2 3 3 3 3 4 5 4 3 3 5 5 6 6 6 5 6 7 9 9 7 5 4 3 2 1 2 3 4 3 3 3 3 4 3 2 1
0 0 0 0 0 0 0 1 2 2 2 2 3 3 2 1 1 2 3 4 5 4 4 4 6 8 8 6 5 4 3 2 1 1 3 5 5 4 4 4 3 2 1 0
0 0 0 0 1 1 0 0 1 1 1 1 2 1 1 0 1 2 3 4 5 4 3 3 4 5 6 6 6 5 4 3 3 3 4 6 5 4 3 3 2 2 1 1
0 0 0 1 2 2 1 1 1 1 1 2 2 1 1 1 2 4 4 5 6 4 3 3 3 3 4 6 7 5 3 2 3 4 5 5 4 2 2 1 1 1 1 0
0 0 1 2 3 3 3 2 2 2 3 3 3 3 2 3 4 5 6 6 6 4 3 2 1 1 2 5 7 5 3 2 2 4 3 3 2 1 0 0 0 0 0 0
0 1 2 3 3 3 3 3 3 3 3 3 4 3 3 4 5 6 6 6 4 3 1 1 0 0 2 4 5 5 3 1 2 2 1 1 1 0 0 0 0 0 0 0
1 2 3 3 3 3 3 3 2 3 3 4 5 4 4 5 6 5 5 4 2 1 0 0 1 1 2 3 4 4 4 3 2 1 0 0 0 0 0 0 0 0 0 0
3 3 3 3 3 3 3 2 2 2 4 5 6 6 6 6 6 4 2 2 1 0 0 1 2 2 3 3 3 4 4 4 3 2 1 0 1 1 1 0 0 0 0 0

GEFSNGP_con_prob3kmehi_282.txt.gz
EHI
0 0 0 0 0 0 0 0 0 0 0 1 1 1 2 3 4 6 8 11 13 14 16 21 24 23 19 18 19 22 25 26 24 22 21 22 23 24 24 23 21 21 20 19
0 0 0 0 0 0 0 0 0 0 1 2 2 2 2 4 5 7 8 10 12 14 15 18 22 24 24 24 24 25 26 25 24 22 23 24 24 25 27 25 23 22 23 22
0 0 0 0 0 0 0 0 0 1 2 2 3 4 6 7 7 7 7 9 12 14 14 16 19 24 29 31 32 30 27 24 22 21 23 25 26 28 31 29 26 26 26 26
0 0 0 0 0 0 0 0 1 2 2 3 4 7 10 10 9 8 9 12 15 15 15 17 20 24 29 34 35 33 29 25 22 21 22 27 30 33 34 32 30 30 28 27
0 0 0 0 0 0 0 1 2 3 4 6 7 7 9 11 11 13 15 18 19 18 17 18 23 27 30 33 35 34 31 29 27 25 24 28 32 34 35 33 31 29 26 24
0 0 0 0 0 0 1 2 3 5 7 9 9 8 10 11 14 18 21 22 22 19 17 19 24 28 31 33 33 31 30 31 31 29 27 27 29 31 32 31 29 25 21 19
0 0 0 0 0 0 1 3 6 9 11 12 13 13 14 15 17 21 23 22 22 20 19 20 22 26 29 31 30 27 26 28 30 30 27 25 27 29 31 29 26 21 17 15
0 0 0 0 0 0 2 6 11 13 14 16 18 18 18 18 18 19 20 20 21 23 23 22 22 23 27 29 28 25 24 26 27 27 24 24 27 30 31 28 23 18 15 13
0 0 0 0 0 0 3 8 12 15 16 17 18 19 18 18 18 17 17 18 20 23 25 25 24 24 25 27 27 26 25 25 26 24 22 23 27 30 29 26 20 16 13 12
0 0 1 1 1 2 4 8 11 14 16 16 16 17 16 16 17 17 17 16 16 17 22 24 25 24 24 26 28 29 27 26 26 24 22 24 27 28 27 23 19 15 14 14
0 0 2 4 6 6 7 9 12 15 16 16 14 13 13 14 17 19 17 14 12 12 17 23 24 23 23 26 28 28 27 27 27 25 23 26 27 25 21 17 14 13 14 14
2 2 4 7 10 11 10 12 14 17 17 15 12 11 12 14 16 17 16 13 11 12 16 22 24 23 23 25 27 26 26 27 27 26 25 26 26 21 15 11 8 7 8 9
6 6 7 10 11 12 11 12 14 15 14 12 11 10 12 13 14 14 14 13 13 14 17 19 22 23 24 25 26 26 26 28 29 28 26 26 25 22 18 13 8 4 2 2
9 10 11 12 12 11 10 11 12 11 9 8 8 9 11 12 13 12 12 13 14 16 16 16 19 21 23 26 28 28 29 30 30 28 25 25 25 24 22 19 15 9 3 0
10 11 12 12 12 11 10 10 11 8 6 5 6 8 10 12 13 13 12 13 14 15 15 14 16 18 22 26 29 30 31 31 29 25 23 24 25 24 21 20 18 14 7 3
9 10 10 11 12 11 9 8 9 6 4 4 6 7 10 11 13 14 13 12 12 14 14 14 16 19 21 25 29 31 32 29 25 24 24 25 26 24 20 19 18 15 11 8
6 7 8 9 9 8 6 5 5 4 3 4 5 6 8 11 12 12 12 11 10 12 14 15 17 20 22 25 29 31 30 26 24 24 25 27 26 23 19 18 17 15 13 10
3 4 5 5 5 6 5 3 2 3 3 4 5 6 7 9 9 8 9 10 9 11 14 16 16 18 20 22 25 27 26 24 24 23 23 23 22 19 17 17 15 13 11 10
1 2 2 3 3 4 4 3 1 2 3 3 4 5 6 6 5 5 7 8 9 11 14 15 13 14 15 15 17 20 22 21 20 20 18 17 16 15 14 13 12 10 9 10
1 2 2 2 1 1 2 2 1 1 2 3 4 4 5 5 5 4 5 6 7 10 13 12 11 11 11 9 11 16 18 17 15 15 14 12 11 11 10 9 9 8 8 8
2 2 1 1 0 0 0 1 1 1 2 4 5 5 5 6 6 5 4 4 5 9 11 10 10 10 8 7 8 11 14 14 12 11 10 9 9 9 8 8 8 7 7 6
1 1 0 0 0 0 1 2 2 2 3 4 5 5 6 6 6 5 4 3 3 5 8 9 9 8 6 5 5 7 11 14 13 11 8 7 8 7 7 7 7 7 6 6
0 0 0 0 0 0 1 2 3 3 4 5 5 5 5 5 5 4 3 2 1 3 6 7 6 5 4 4 5 7 11 13 14 11 9 8 7 6 5 5 6 6 6 6
1 0 0 0 0 0 1 1 1 2 3 3 4 3 2 2 3 2 1 1 1 3 5 5 3 2 4 6 7 9 11 12 12 10 8 6 5 4 4 5 6 7 7 6
2 1 0 0 0 0 0 0 0 1 1 1 1 1 0 0 1 2 2 3 3 3 4 4 2 2 4 7 8 8 9 10 9 8 6 4 3 4 6 7 8 8 7 7
3 2 1 0 0 0 0 0 0 0 0 1 1 1 1 1 3 4 5 5 5 4 4 4 3 3 5 8 9 9 8 6 5 6 5 5 5 6 8 9 9 9 8 7
3 3 2 1 0 0 0 0 0 0 1 2 2 2 2 3 4 6 6 6 6 5 5 4 4 5 7 9 11 10 8 4 3 4 6 7 7 8 9 10 9 8 7 7